Holyoke AP, Holyoke, CO, CO

8:12 PM MDT on April 22, 2018 (GMT -0600)
Holyoke Municipal

Weather History for KHEQ - February, 2014

Change the Weather History Date:

Saturday, February 1, 2014

  Actual Average Record
Temperature  
Mean Temperature 12 °F -  
Max Temperature 23 °F 43 °F 37 °F (2018)
Min Temperature 0 °F 14 °F 0 °F (2014)
Degree Days  
Heating Degree Days 54    
Moisture  
Dew Point 10 °F    
Average Humidity 78    
Maximum Humidity 93    
Minimum Humidity 63    
Precipitation  
Precipitation 0.00 in - - ()
Sea Level Pressure  
Sea Level Pressure 30.00 in    
Wind  
Wind Speed 9 mph (NNW)    
Max Wind Speed 17 mph    
Max Gust Speed 22 mph    
Visibility 10 miles    
Events Snow    
Averages and records for this station are not official NWS values.
T = Trace of Precipitation, MM = Missing Value Source: NWS Daily Summary

Daily Weather History Graph

Daily Weather History Graph

Search for Another Location

Airport or City:

Astronomy

Feb. 01, 2014 Rise Set
Actual Time 6:58 AM MST 5:07 PM MST
Civil Twilight 6:29 AM MST 5:36 PM MST
Nautical Twilight 5:57 AM MST 6:08 PM MST
Astronomical Twilight 5:25 AM MST 6:40 PM MST
Moon 7:48 AM MST (2/1) 7:45 PM MST (2/1)
Length of Visible Light 11h 06m
Length of Day
10h 08m
Waxing Crescent, 5% of the Moon is Illuminated
Feb 1
Waxing Crescent
Feb 6
First Quarter
Feb 14
Full
Feb 22
Last Quarter
Mar 1
New

Hourly Weather History & Observations

Time (MST) Temp. Windchill Dew Point Humidity Pressure Visibility Wind Dir Wind Speed Gust Speed Precip Events Conditions
12:15 AM 14.0 °F 5.1 °F 10.4 °F 86% 29.78 in 10.0 mi West 5.8 mph - N/A   Mostly Cloudy
12:35 AM 14.0 °F 6.5 °F 10.4 °F 86% 29.77 in 10.0 mi West 4.6 mph - N/A   Scattered Clouds
12:55 AM 14.0 °F 5.1 °F 10.4 °F 86% 29.77 in 10.0 mi West 5.8 mph - N/A   Scattered Clouds
1:15 AM 14.0 °F 5.1 °F 10.4 °F 86% 29.77 in 10.0 mi NW 5.8 mph - N/A   Scattered Clouds
1:35 AM 19.4 °F 7.9 °F 17.6 °F 93% 29.77 in 10.0 mi NW 10.4 mph - N/A   Mostly Cloudy
1:55 AM 19.4 °F 8.6 °F 15.8 °F 86% 29.78 in 10.0 mi NW 9.2 mph - N/A   Overcast
2:15 AM 17.6 °F 8.2 °F 14.0 °F 86% 29.79 in 10.0 mi NNW 6.9 mph - N/A   Overcast
2:35 AM 17.6 °F 8.2 °F 14.0 °F 86% 29.80 in 10.0 mi NNW 6.9 mph - N/A   Mostly Cloudy
2:55 AM 14.0 °F 3.9 °F 10.4 °F 86% 29.81 in 10.0 mi NNW 6.9 mph - N/A   Scattered Clouds
3:15 AM 14.0 °F 2.0 °F 10.4 °F 86% 29.81 in 10.0 mi NNW 9.2 mph - N/A   Clear
3:35 AM 15.8 °F 3.4 °F 12.2 °F 86% 29.82 in 10.0 mi North 10.4 mph - N/A   Clear
3:55 AM 19.4 °F 5.5 °F 14.0 °F 80% 29.82 in 10.0 mi North 15.0 mph - N/A   Clear
4:15 AM 19.4 °F 4.5 °F 15.8 °F 86% 29.83 in 10.0 mi North 17.3 mph 21.9 mph N/A   Clear
4:35 AM 19.4 °F 5.0 °F 15.8 °F 86% 29.85 in 10.0 mi North 16.1 mph - N/A   Scattered Clouds
4:55 AM 17.6 °F 3.7 °F 12.2 °F 79% 29.86 in 10.0 mi North 13.8 mph - N/A   Scattered Clouds
5:15 AM 17.6 °F 3.7 °F 12.2 °F 79% 29.86 in 10.0 mi North 13.8 mph - N/A   Scattered Clouds
5:35 AM 17.6 °F 3.2 °F 12.2 °F 79% 29.87 in 10.0 mi North 15.0 mph - N/A   Scattered Clouds
5:55 AM 17.6 °F 4.3 °F 12.2 °F 79% 29.88 in 10.0 mi North 12.7 mph - N/A   Clear
6:15 AM 15.8 °F 2.1 °F 12.2 °F 86% 29.89 in 10.0 mi North 12.7 mph - N/A   Clear
6:35 AM 14.0 °F 2.0 °F 10.4 °F 86% 29.90 in 10.0 mi North 9.2 mph - N/A   Clear
6:55 AM 12.2 °F -0.2 °F 6.8 °F 79% 29.91 in 10.0 mi NNW 9.2 mph - N/A   Clear
7:15 AM 12.2 °F -1.0 °F 8.6 °F 85% 29.92 in 10.0 mi North 10.4 mph - N/A   Clear
7:35 AM 14.0 °F 0.5 °F 8.6 °F 79% 29.94 in 10.0 mi North 11.5 mph - N/A   Clear
7:55 AM 14.0 °F 1.2 °F 8.6 °F 79% 29.94 in 10.0 mi North 10.4 mph - N/A   Clear
8:15 AM 14.0 °F 1.2 °F 8.6 °F 79% 29.94 in 10.0 mi North 10.4 mph - N/A   Clear
8:35 AM 14.0 °F 2.9 °F 8.6 °F 79% 29.96 in 10.0 mi North 8.1 mph - N/A   Clear
8:55 AM 14.0 °F 3.9 °F 8.6 °F 79% 29.96 in 10.0 mi North 6.9 mph - N/A   Clear
9:15 AM 17.6 °F 8.2 °F 8.6 °F 68% 29.99 in 10.0 mi NNE 6.9 mph - N/A   Scattered Clouds
9:35 AM 19.4 °F 8.6 °F 10.4 °F 68% 30.00 in 10.0 mi North 9.2 mph - N/A   Overcast
9:55 AM 19.4 °F 6.6 °F 10.4 °F 68% 30.01 in 10.0 mi North 12.7 mph - N/A   Overcast
10:15 AM 19.4 °F 6.6 °F 10.4 °F 68% 30.01 in 10.0 mi North 12.7 mph - N/A   Mostly Cloudy
10:35 AM 19.4 °F 9.5 °F 10.4 °F 68% 30.03 in 10.0 mi North 8.1 mph - N/A   Scattered Clouds
10:55 AM 19.4 °F 6.0 °F 10.4 °F 68% 30.02 in 10.0 mi North 13.8 mph - N/A   Clear
11:15 AM 19.4 °F 6.0 °F 10.4 °F 68% 30.03 in 10.0 mi North 13.8 mph - N/A   Scattered Clouds
11:30 AM 21.2 °F 7.8 °F 12.2 °F 68% 30.03 in 10.0 mi North 15.0 mph - N/A   Scattered Clouds
11:55 AM 21.2 °F 9.5 °F 10.4 °F 63% 30.02 in 10.0 mi North 11.5 mph - N/A   Mostly Cloudy
12:15 PM 21.2 °F 9.5 °F 12.2 °F 68% 30.01 in 10.0 mi NNE 11.5 mph - N/A   Overcast
12:35 PM 21.2 °F 9.5 °F 12.2 °F 68% 30.01 in 10.0 mi North 11.5 mph - N/A   Overcast
12:55 PM 21.2 °F 10.9 °F 12.2 °F 68% 30.01 in 10.0 mi North 9.2 mph - N/A   Mostly Cloudy
1:15 PM 21.2 °F 8.9 °F 12.2 °F 68% 30.01 in 10.0 mi North 12.7 mph - N/A   Scattered Clouds
1:35 PM 21.2 °F 9.5 °F 12.2 °F 68% 30.01 in 10.0 mi North 11.5 mph - N/A   Mostly Cloudy
1:55 PM 23.0 °F 12.4 °F 12.2 °F 63% 30.01 in 10.0 mi North 10.4 mph - N/A   Scattered Clouds
2:15 PM 23.0 °F 12.4 °F 12.2 °F 63% 30.03 in 10.0 mi NNE 10.4 mph - N/A   Scattered Clouds
2:35 PM 23.0 °F 13.9 °F 12.2 °F 63% 30.04 in 10.0 mi NNE 8.1 mph - N/A   Overcast
2:55 PM 21.2 °F 10.9 °F 12.2 °F 68% 30.05 in 10.0 mi NNE 9.2 mph - N/A   Overcast
3:15 PM 21.2 °F 10.9 °F 14.0 °F 74% 30.05 in 10.0 mi North 9.2 mph - N/A   Overcast
3:35 PM 21.2 °F 12.6 °F 14.0 °F 74% 30.06 in 10.0 mi North 6.9 mph - N/A   Overcast
3:55 PM 21.2 °F 13.6 °F 14.0 °F 74% 30.07 in 10.0 mi North 5.8 mph - N/A Snow Light Snow
4:15 PM 19.4 °F 9.5 °F 12.2 °F 74% 30.08 in 10.0 mi North 8.1 mph - N/A Snow Light Snow
4:35 PM 19.4 °F 7.9 °F 12.2 °F 74% 30.09 in 10.0 mi North 10.4 mph - N/A Snow Light Snow
4:55 PM 19.4 °F 9.5 °F 12.2 °F 74% 30.10 in 10.0 mi North 8.1 mph - N/A Snow Light Snow
5:15 PM 19.4 °F 11.5 °F 12.2 °F 74% 30.11 in 10.0 mi North 5.8 mph - N/A Snow Light Snow
5:35 PM 19.4 °F 12.8 °F 12.2 °F 74% 30.11 in 10.0 mi North 4.6 mph - N/A   Overcast
5:55 PM 19.4 °F 12.8 °F 14.0 °F 80% 30.12 in 10.0 mi North 4.6 mph - N/A   Overcast
6:15 PM 19.4 °F 14.3 °F 14.0 °F 80% 30.13 in 10.0 mi North 3.5 mph - N/A   Overcast
6:35 PM 19.4 °F - 14.0 °F 80% 30.14 in 10.0 mi Calm Calm - N/A   Overcast
6:55 PM 19.4 °F - 14.0 °F 80% 30.14 in 10.0 mi Calm Calm - N/A   Overcast
7:15 PM 17.6 °F - 12.2 °F 79% 30.15 in 10.0 mi Calm Calm - N/A   Overcast
7:35 PM 14.0 °F - 10.4 °F 86% 30.15 in 10.0 mi Calm Calm - N/A   Overcast
7:55 PM 12.2 °F 4.3 °F 8.6 °F 85% 30.15 in 10.0 mi WSW 4.6 mph - N/A   Mostly Cloudy
8:15 PM 8.6 °F 0.1 °F 3.2 °F 79% 30.15 in 10.0 mi SW 4.6 mph - N/A   Scattered Clouds
8:35 PM 6.8 °F -2.0 °F 3.2 °F 85% 30.16 in 10.0 mi WSW 4.6 mph - N/A   Clear
8:55 PM 5.0 °F -6.9 °F 1.4 °F 85% 30.16 in 10.0 mi West 6.9 mph - N/A   Clear
9:15 PM 10.4 °F -0.4 °F 6.8 °F 85% 30.16 in 10.0 mi West 6.9 mph - N/A   Clear
9:35 PM 3.2 °F -9.1 °F -0.4 °F 85% 30.16 in 10.0 mi West 6.9 mph - N/A   Clear
9:55 PM 5.0 °F -5.6 °F 1.4 °F 85% 30.16 in 10.0 mi WNW 5.8 mph - N/A   Clear
10:15 PM 5.0 °F -5.6 °F 1.4 °F 85% 30.15 in 10.0 mi WNW 5.8 mph - N/A   Clear
10:35 PM 5.0 °F -6.9 °F 1.4 °F 85% 30.16 in 10.0 mi WNW 6.9 mph - N/A   Clear
10:55 PM 6.8 °F -5.9 °F 3.2 °F 85% 30.15 in 10.0 mi WNW 8.1 mph - N/A   Clear
11:15 PM 5.0 °F -5.6 °F 1.4 °F 85% 30.16 in 10.0 mi WNW 5.8 mph - N/A   Clear
11:35 PM -0.4 °F -13.4 °F -5.8 °F 78% 30.16 in 10.0 mi WSW 6.9 mph - N/A   Clear
11:55 PM -0.4 °F -14.7 °F -5.8 °F 78% 30.15 in 10.0 mi WSW 8.1 mph - N/A   Clear